Погода в Ельниках

Россия / Красноярский край     55°44′31″N   96°25′03″E
темп.,
°C
ветер,
м/с
пор.,
м/с
влажн.,
%
обл.,
%
осадки,
мм/ч
давл.,
гПа
погр.,
м
17 сентября, пт
пт1701:00+7в2498100 0.3 1014117
04:00+5в2298100 0.0 101451
07:00+7вюв1398100 0.2 101399
10:00+11вюв3491100 0.4 1012259
13:00+15вюв347588 0.4 1010500
16:00+17в22625 0.0 1009881
19:00+10всв239424 0.0 101057
22:00+9юв119458 0.0 101011
18 сентября, сб
сб1801:00+9ююв229452 0.0 100915
04:00+8юв229318 0.0 100719
07:00+8юв248919 0.0 100675
10:00+17ююв36525 0.0 1004271
13:00+23ю35386 0.0 1003592
16:00+20сз5849100 0.0 10061482
19:00+13юз2277100 0.2 101027
22:00+11з3779100 0.0 1012362
19 сентября, вс
вс1901:00+9з118388 0.1 101338
04:00+7юв1189100 0.0 101310
07:00+9вюв1279100 0.0 101356
10:00+14вюв346212 0.0 1010590
13:00+19ююв244896 0.0 10081543
16:00+19ююв1248100 0.0 10071488
19:00+12в248684 0.0 100682
22:00+10ссв1193100 0.0 100511
20 сентября, пн
пн2001:00+9ссв1195100 0.0 100211
04:00+9с31098100 0.2 999351
07:00+10сз3698100 1.1 1001372
10:00+10зюз51092100 1.4 1003769
13:00+9зюз61483100 2.8 10061520
16:00+10з7135844 0.3 10091770
19:00+6зюз511655 0.3 10101073
22:00+5зюз5127137 0.0 10111236
21 сентября, вт
вт2101:00+3зюз513775 0.0 10131094
04:00+2зюз512815 0.0 1014833
07:00+2зюз4118861 0.0 1015807
10:00+5з596186 0.0 10161362
13:00+6з475799 0.1 10161523
16:00+7з465395 0.1 10161589
19:00+2юз227379 0.1 101825
22:000юз228847 0.0 101932